UUWW

Moskow/Vnukovo International Airport

Airport
ICAO code
UUWW
IATA Code
VKO
Summary
ICAO Region
EUR
ICAO Territory
Location

Vnukovo, Moscow Oblast,

Serving
Moscow
Elevation
686 ft
Coordinates
55° 35' 40" N , 37° 15' 49" E
KCC
Metar
Observation
UUWW 272030Z 27002MPS 2900 -SHSN BR BKN004 BKN020CB M02/M03 Q1022 R24/510345 TEMPO 1000 SN BR OVC002
Station
Moscow / Vnukovo
Date/Time
2023-01-27 20:30:00
Wind direction
270°
Lowest cloud amount
broken clouds
Temperature
-2°C
Dew point
-3°C
Humidity
92%
QNH
1022 hPa
Weather condition
n/a

Description

Vnukovo International Airport, is an international airport located 28 km southwest from the centre of Moscow, Russia.

Climatology

Humid Continental climate (Köppen climate classification Dfb) - Variable weather patterns and a large seasonal temperature variance. Summers are often warm and humid with frequent thunderstorms and winters can be very cold with frequent snowfall and persistent snow cover.

Runways

Designator Length Width Surface Rops
6/24 3000 60 ASP Yes/Yes
2/20 3060 60 ASP Yes/Yes

Airport map

Aerial View

SKYbrary Partners:

Safety knowledge contributed by: